Regional Weather Roundup
Issued by NWS Sterling, VA

Home | Current Version | Previous Version | Graphics & Text | Print | Product List | Glossary On
Versions: 1 2 3 4 5 6 7 8 9 10 11 12 13 14 15 16 17 18 19 20 21 22 23 24 25 26 27 28 29 30 31 32 33 34 35 36 37 38 39 40 41 42 43 44 45 46 47 48 49 50
000
ASUS41 KLWX 222110
RWRLWX

REGIONAL WEATHER ROUNDUP
NATIONAL WEATHER SERVICE BALTIMORE MD/WASHINGTON DC
500 PM EDT TUE JUL 22 2014

Note: "FAIR" indicates few or no clouds below 12,000 feet
with no significant weather and/or obstructions to visibility.
 TC=TEMPERATURE CELSIUS

 * =Non NWS site. Station does not report precipitation (e.g. rain,
    snow, etc.), thunder, or fog.

DCZ001-MDZ009-015-VAZ040>042-051-053>054-222200-
WASHINGTON METRO
  /KDAA//-FT BELVOIR

CITY           SKY/WX    TMP DP  RH WIND       PRES   REMARKS
WASHINGTON NAT PTSUNNY   86  67  52 S12       30.10F
DULLES         PTSUNNY   84  69  60 S7        30.10F
ANDREWS AFB    PTSUNNY   84  71  65 SE10      30.11F
QUANTICO       SUNNY     84  72  67 S12       30.11F
COLLEGE PARK*  PTSUNNY   84  70  61 SE5       30.10F
LEESBURG*      PTSUNNY   88  72  58 S14       30.11S HX  94
MANASSAS*      MOSUNNY   84  72  65 S12       30.10F
GAITHERSBURG*  MOSUNNY   86  70  58 S8        30.14F HX  90

$$

MDZ006>007-011-014-222200-
BALTIMORE METRO

CITY           SKY/WX    TMP DP  RH WIND       PRES   REMARKS
BWI AIRPORT    PTSUNNY   84  66  54 S7        30.10F
MD SCIENCE CTR   N/A     85  66  53 MISG      30.10F
MARTIN STATE   MOSUNNY   84  70  61 S8        30.12F
ANNAPOLIS      SUNNY     83  65  54 S13       30.11F
FORT MEADE*    SUNNY     82  66  57 S7        30.13S

$$

MDZ012-015-019>023-222200-
MARYLAND EASTERN SHORE

CITY           SKY/WX    TMP DP  RH WIND       PRES   REMARKS
OCEAN CITY     MOSUNNY   76  68  76 VRB5      30.15S
SALISBURY      NOT AVBL
BAY BRIDGE AP*   N/A     84  64  51 S10       30.12S
CAMBRIDGE*     MOSUNNY   86  63  45 S5        30.12S
EASTON*        PTSUNNY   88  68  51 S5        30.15F HX  91

$$

MDZ017>025-222200-
SOUTHERN MARYLAND

CITY           SKY/WX    TMP DP  RH WIND       PRES   REMARKS
PATUXENT RIVER PTSUNNY   81  64  56 SE10      30.12F
ST INIGOES     MOSUNNY   83  65  54 VRB5      30.12F
LEONARDTOWN*   MOSUNNY   82  63  51 SE6       30.14S

$$

MDZ003>005-222200-
NORTH CENTRAL MARYLAND

CITY           SKY/WX    TMP DP  RH WIND       PRES   REMARKS
FREDERICK*     MOSUNNY   88  73  62 S5        30.11F HX  96
HAGERSTOWN APT MOSUNNY   85  67  54 SE9       30.09F
WESTMINSTER*   PTSUNNY   82  75  78 S6        30.12F

$$

MDZ501>502-222200-
WESTERN MARYLAND

CITY           SKY/WX    TMP DP  RH WIND       PRES   REMARKS
OAKLAND*       MOSUNNY   77  70  78 SE5       30.20S
CUMBERLAND*    MOSUNNY   91  68  46 SE6       30.10F HX  95

$$

VAZ025>031-222200-
SHENANDOAH VALLEY

CITY           SKY/WX    TMP DP  RH WIND       PRES   REMARKS
WINCHESTER*    SUNNY     86  70  58 S8        30.10F HX  90
STAUNTON*      SUNNY     85  67  54 S8        30.14S

$$

WVZ021-048>050-054>055-222200-
EASTERN WEST VIRGINIA PANHANDLE

CITY           SKY/WX    TMP DP  RH WIND       PRES   REMARKS
MARTINSBURG    MOSUNNY   85  68  56 S9        30.09F
PETERSBURG*    SUNNY     89  60  38 E7        30.07F

$$

VAZ036>039-050-222200-
CENTRAL FOOTHILLS

CITY           SKY/WX    TMP DP  RH WIND       PRES   REMARKS
CHARLOTTESVILL MOSUNNY   85  69  58 S7        30.10F
ORANGE*        MOSUNNY   82  68  61 E5        30.12F

$$

VAZ055>057-222200-
NORTH AND CENTRAL PIEDMONT

CITY           SKY/WX    TMP DP  RH WIND       PRES   REMARKS
FREDERICKSBRG* MOSUNNY   86  71  60 E5        30.10S HX  91
STAFFORD*      MOSUNNY   85  70  60 S8        30.15S

$$

NCZ024-NYZ072-PAZ021-071-VAZ022-071-222200-
OTHER REGIONAL OBSERVATIONS

CITY           SKY/WX    TMP DP  RH WIND       PRES   REMARKS
NEW YORK CITY  MOSUNNY   83  67  58 S7        30.09F
PHILADELPHIA   MOSUNNY   86  64  47 S15       30.09F
PITTSBURGH     MOSUNNY   87  67  51 SW7       30.07F HX  90
ROANOKE        MOSUNNY   85  66  53 SE12      30.14F
RICHMOND       PTSUNNY   88  68  51 E10       30.11F HX  91
RALEIGH        PTSUNNY   83  69  62 E5        30.10F

$$

ANZ530>537-222200-
MARINE OBSERVATIONS

STATION/POSITION TIME  TEMP    WIND        PRES
                       AIR SEA DIR/SP/G
                 (UTC) (F)     (DEG/KT/KT) (MB)
THOMAS PT LIGHT  2100   81 81  170/ 14/ 15 1020.1F
BALT KEY BRIDGE  2100          140/ 11/ 12 1019.1F
COVE POINT       2100   79     190/ 12/ 12 1020.0F
LEWISETTA        2100   82 82  150/  8/ 10 1019.7F
SOLOMONS ISLAND  2100      83                N/A
PINEY POINT      2100          140/ 12/ 13   N/A

$$



USA.gov is the U.S. government's official web portal to all federal, state and local government web resources and services.